Location: Newark
(52.0267°N, 0.2640°W)
Time: 14:22:11
(UTC+00:00)

Starlink Launch 2 trailer - Visible Passes

Search period start: 07 December 2019 00:00
Search period end: 17 December 2019 00:00
Orbit: 279 x 281 km, 53.0° (Epoch: 13 November)

Date Brightness Start Highest point End Pass type
(mag) Time Alt. Az. Time Alt. Az. Time Alt. Az.
07 Dec 5.3 05:19:37 17° SE 05:19:37 17° SE 05:20:21 10° ESE visible
07 Dec 4.9 06:50:10 10° WSW 06:51:07 12° SW 06:52:04 10° SSW visible
08 Dec 5.4 05:21:39 14° SE 05:21:39 14° SE 05:22:07 10° SE visible
